THAICOM 5

Last updated on Feb. 27, 2020, 4:51 a.m. UTC

1 29163U 06020B   20056.51092270  .00000028  00000-0  00000+0 0  9997
2 29163   0.1699 103.5707 0013697 116.1044 196.0029  0.99449000 50438
UTC
Height (km)
Latitude
Longitude
Inclination
Orbital Period
UTC large
Height (km)
Speed (km/s)
/
Latitude / Longitude
Inclination (degrees)
Orbital Period (minutes)
Azimuth
Elevation
Range (km)
Doppler Factor
iOS Compass Heading
iOS Angle

Next 30 passes for location: Hong Kong

Rise time Rise Azimuth (degrees) Set time Set Azimuth (degrees) Duration Max altitude (degrees)

No matching passes for this satellites